Wetbulb
50.38 50.87 51.25 51.16 51.73 52.34 52.61 52.99 53.09 53.32 53.81 54.30 54.26 54.29 54.81 55.93 56.27 49.59 46.43 52.01 53.34 57.79 57.57 50.04 46.70 45.65 45.24 43.65 44.99 41.59 32.78 30.31 31.76 33.30 34.62 39.78 38.56 40.93 41.28 39.21 40.19 40.94 39.20 41.63 43.87
49.98 50.18 50.63 50.91 51.30 51.98 52.44 52.55 52.84 53.10 53.74 54.45 54.25 54.53 54.62 55.51 48.71 44.17 51.80 55.26 56.26 58.23 47.60 45.08 43.67 44.40 40.71 41.88 42.08 37.62 31.33 33.11 36.43 36.56 36.16 37.62 37.29 37.08 37.98 38.04 38.14 38.28 40.49 42.95 43.23
49.63 49.99 50.29 50.64 51.03 51.71 52.23 52.19 52.82 52.89 53.21 54.09 54.21 54.15 54.12 53.23 43.46 43.34 53.69 55.32 57.06 56.44 48.36 46.13 45.32 42.93 39.59 40.70 39.80 37.66 33.95 37.44 39.15 39.49 38.99 37.56 37.50 37.54 35.02 34.26 35.70 35.45 39.51 41.73 41.89
49.04 49.29 49.75 50.29 50.97 51.64 51.89 52.03 52.88 53.13 53.83 54.15 54.01 53.75 54.24 48.98 34.90 44.25 56.39 55.30 57.51 50.19 46.38 44.87 43.11 38.67 36.21 35.93 39.39 34.20 38.37 38.17 40.20 40.34 38.65 36.16 37.70 36.23 34.54 35.26 39.02 37.93 39.67 39.82 40.12
48.29 48.59 48.95 49.86 50.85 51.51 51.40 51.78 52.43 53.10 54.13 53.42 53.51 53.85 49.45 39.06 38.91 46.93 53.73 51.26 48.19 46.67 44.35 42.87 40.77 39.02 34.75 35.43 36.46 34.16 35.82 38.35 38.77 38.53 37.23 38.52 35.36 33.89 34.76 37.10 38.89 40.05 40.71 39.27 38.62
48.03 48.02 48.65 49.54 50.57 51.07 50.90 51.53 52.20 52.90 53.88 53.35 53.74 54.09 43.98 34.41 45.91 46.64 46.29 46.92 46.18 44.90 42.89 42.86 40.38 40.96 37.23 35.72 34.08 35.07 35.68 35.15 36.41 36.23 36.60 34.70 33.20 34.17 33.49 36.41 37.66 39.37 37.89 37.13 36.78
47.75 47.90 48.56 49.40 50.26 50.61 50.51 51.23 52.02 52.83 53.82 53.47 54.11 50.49 39.66 36.54 44.48 44.57 45.94 44.83 45.36 44.92 41.70 42.91 42.27 40.27 38.10 34.67 37.66 34.78 31.12 32.33 32.59 34.84 34.94 35.01 31.15 31.42 33.72 36.35 36.87 37.12 35.96 35.98 35.96
47.66 47.61 48.31 49.10 49.90 50.05 50.46 51.14 51.96 52.96 53.97 54.01 55.04 43.85 34.93 45.56 43.33 44.94 45.81 44.30 45.87 45.40 43.96 43.52 43.32 40.71 37.93 37.51 35.17 30.97 28.80 25.33 33.25 34.93 36.01 34.34 27.42 34.07 35.50 34.81 35.46 35.12 33.11 34.16 34.47
47.45 47.42 48.07 48.79 49.62 49.47 50.28 51.11 52.17 53.19 54.33 54.50 44.82 39.62 33.96 47.86 41.78 43.77 44.26 42.27 43.49 43.94 42.99 44.78 41.59 36.68 35.98 29.03 25.76 27.35 22.95 24.97 29.76 35.30 33.85 32.46 28.80 34.41 35.88 35.46 34.24 32.81 31.98 32.93 32.29
47.59 47.22 47.76 48.74 49.28 49.23 50.10 51.02 52.43 50.90 50.22 51.34 46.53 34.89 38.90 37.21 41.04 43.02 44.14 44.43 41.02 40.31 40.28 38.42 33.73 29.11 28.05 25.88 21.71 23.35 22.90 25.22 24.10 30.37 32.18 29.05 30.01 32.57 34.09 34.20 32.53 30.48 30.85 30.46 30.94
48.14 47.28 47.29 48.54 48.86 48.75 44.99 44.22 41.30 38.19 40.40 36.31 37.13 37.00 38.77 40.57 42.91 41.69 43.58 42.24 40.96 37.28 30.95 34.05 27.41 24.47 26.01 28.32 29.09 27.07 25.23 23.49 26.10 31.34 29.64 26.23 28.52 31.80 33.16 31.92 30.97 29.67 29.37 29.08 29.85
48.51 47.33 47.04 48.08 47.89 47.59 42.35 38.67 37.90 38.62 32.57 39.66 40.21 40.49 41.87 42.29 36.34 39.64 43.62 36.37 35.40 29.79 31.75 28.64 26.04 31.60 33.51 32.16 29.22 27.44 24.47 23.51 27.64 31.21 29.48 27.90 27.36 29.23 31.35 29.53 29.37 29.10 28.99 29.00 29.37
48.71 47.34 46.69 47.82 46.58 42.57 39.15 38.82 42.19 41.10 33.09 36.64 39.91 39.51 39.94 40.93 36.10 36.51 40.09 36.41 32.27 29.58 29.67 26.44 30.19 34.23 32.10 28.61 27.72 26.30 25.01 25.15 25.52 28.58 27.97 25.83 23.13 25.80 28.56 30.02 30.76 29.95 30.28 30.29 28.95
48.67 47.13 46.69 46.21 39.92 39.12 37.29 41.31 42.70 40.52 26.18 30.72 35.32 37.72 40.35 39.85 34.31 41.18 41.06 36.78 32.33 28.99 29.29 28.97 32.64 31.12 29.11 28.03 28.57 24.13 29.31 28.41 27.56 23.79 18.05 26.28 13.02 22.96 27.30 27.33 28.52 28.86 27.45 27.24 27.88
48.33 47.10 46.80 44.18 37.44 36.86 39.72 42.41 42.50 36.59 17.43 32.76 34.21 42.44 40.16 35.32 35.86 36.63 40.47 36.46 30.20 30.10 27.55 26.36 27.48 28.54 28.23 28.48 30.84 27.25 30.39 28.11 27.39 22.89 20.96 21.03 15.77 21.66 25.55 25.20 27.56 27.97 26.74 25.58 25.98
48.10 47.05 46.62 40.49 38.52 38.93 41.75 40.90 37.86 24.67 17.21 27.06 33.31 33.01 32.57 34.01 34.50 36.42 35.92 38.08 35.44 31.40 30.14 28.13 31.58 29.84 29.32 31.41 30.80 31.75 28.00 25.41 24.80 21.94 6.91 19.59 18.56 19.09 22.81 25.76 26.83 27.75 25.11 26.77 25.64
47.95 47.50 43.82 39.85 35.40 40.61 41.33 35.36 23.24 17.33 28.43 23.48 26.89 31.54 29.44 29.54 30.78 31.40 30.43 28.33 26.00 22.27 22.97 26.23 27.35 29.37 31.54 27.30 30.42 28.96 21.12 5.59 6.75 5.72 6.76 20.80 18.54 21.43 25.85 27.57 27.72 27.86 27.18 26.03 24.48
47.75 46.48 41.04 39.36 40.61 42.22 38.08 28.83 17.41 19.62 22.40 29.57 29.16 29.40 26.75 29.37 28.58 28.58 27.14 23.86 27.94 24.67 20.98 19.09 16.85 26.01 29.85 27.09 25.59 25.89 22.22 8.03 1.17 4.39 10.26 21.47 13.40 21.07 26.56 28.87 27.92 27.13 26.78 25.80 25.86
47.30 36.77 36.18 37.92 42.23 41.13 33.67 18.78 21.21 24.50 27.99 27.99 27.95 22.73 23.53 27.23 27.45 26.21 24.77 23.82 26.80 27.08 20.21 18.64 20.51 26.81 28.67 28.43 27.18 24.77 19.08 25.94 9.23 5.28 7.16 16.41 20.61 25.74 26.31 27.12 26.63 25.89 26.66 26.62 26.91
37.42 34.85 35.22 39.25 41.33 37.18 26.32 23.91 23.16 31.14 30.96 30.14 24.45 22.89 17.11 20.47 24.86 23.93 23.87 26.00 26.80 28.01 27.03 24.03 17.17 25.34 26.85 27.74 27.99 26.00 27.80 15.11 10.82 -0.06 -0.69 11.36 15.40 17.43 22.99 23.15 25.11 25.53 25.79 26.04 26.71
36.37 31.89 35.87 40.51 40.06 32.86 19.87 20.29 28.11 31.46 32.79 29.13 25.97 21.21 23.97 21.87 23.60 21.81 23.63 25.19 27.12 27.25 27.70 25.00 21.19 20.87 24.40 22.16 21.88 20.98 17.70 20.12 19.71 15.75 4.71 2.20 11.90 21.46 23.12 23.82 23.20 24.20 26.46 26.92 28.16
35.16 28.16 36.39 38.30 29.77 21.18 19.06 26.97 31.64 28.94 31.15 29.22 29.55 27.06 23.81 22.51 18.55 21.89 23.39 24.10 28.49 28.17 24.44 26.11 22.18 14.10 18.08 21.68 23.56 24.30 23.09 21.06 9.33 8.42 13.87 11.13 15.31 26.20 23.26 23.54 24.44 24.89 25.91 26.69 27.12
31.76 29.26 36.84 36.11 23.35 22.16 21.89 26.58 28.96 27.94 28.25 27.55 26.60 27.65 26.40 22.44 18.80 21.76 23.13 25.13 27.65 26.95 23.98 25.55 15.07 2.53 12.55 18.24 21.12 19.87 21.59 22.26 11.36 9.95 9.01 1.58 11.17 25.06 24.69 23.37 23.32 22.34 24.01 24.67 26.25
31.64 24.04 29.27 32.35 28.60 23.67 20.96 23.93 25.26 28.70 28.10 28.48 26.43 27.07 25.01 20.28 21.18 18.13 21.98 23.91 26.20 26.50 32.34 28.38 14.32 10.34 11.38 15.92 17.40 17.37 20.07 20.36 9.84 -0.38 5.88 11.09 11.39 19.35 20.75 19.27 21.61 22.52 22.88 23.26 24.41
32.05 27.38 29.21 21.68 25.17 26.19 27.67 26.35 24.80 23.76 27.40 28.28 25.57 26.08 24.81 18.57 15.34 15.73 19.11 21.29 24.03 29.00 23.26 20.89 10.68 9.84 10.73 16.04 16.41 18.17 18.26 18.22 10.58 6.87 7.33 15.73 4.48 14.44 12.80 13.37 15.91 21.77 22.79 23.15 24.67
29.93 26.92 27.16 22.81 28.59 27.53 28.43 23.99 24.80 25.03 25.73 24.79 23.90 25.99 23.08 19.15 23.57 18.17 16.35 16.18 19.11 19.14 17.12 17.68 9.84 12.20 5.49 14.90 14.76 12.78 16.71 16.54 17.02 12.77 11.54 13.51 13.52 18.08 19.69 18.91 17.16 18.37 18.94 20.97 20.93
33.87 33.41 31.95 28.60 27.10 26.64 25.68 24.24 26.05 26.41 26.17 27.43 27.27 25.43 23.40 24.34 22.77 22.35 23.11 22.72 20.43 17.75 11.38 13.51 10.67 2.83 -0.33 11.08 7.91 5.68 11.17 16.26 11.52 9.81 8.82 3.99 11.37 16.07 10.78 15.79 9.17 14.91 15.63 15.67 15.95
MSLP
1023.84 1023.59 1023.52 1023.42 1023.52 1023.15 1022.82 1022.89 1022.62 1022.28 1022.14 1021.91 1021.48 1021.05 1020.83 1020.62 1020.13 1020.23 1020.86 1021.37 1020.74 1019.98 1019.51 1018.98 1018.39 1018.29 1018.03 1018.24 1018.41 1018.88 1020.23 1021.01 1020.61 1020.39 1020.66 1020.40 1020.32 1020.10 1019.89 1019.81 1019.65 1019.82 1020.24 1020.33 1020.23
1024.00 1023.83 1023.58 1023.57 1023.42 1023.33 1022.98 1022.89 1022.77 1022.43 1022.22 1021.96 1021.72 1021.30 1021.18 1021.09 1020.98 1021.22 1021.56 1020.86 1020.44 1020.08 1019.76 1019.79 1019.42 1019.08 1019.06 1019.14 1019.26 1019.85 1020.88 1020.85 1020.63 1020.42 1020.58 1020.79 1020.87 1020.85 1020.52 1020.43 1020.17 1020.26 1020.61 1020.62 1020.43
1024.08 1023.93 1023.81 1023.79 1023.55 1023.25 1023.15 1022.91 1022.78 1022.48 1022.21 1021.98 1021.71 1021.43 1021.20 1021.20 1021.13 1021.80 1021.40 1020.87 1020.33 1020.13 1020.07 1019.98 1019.70 1019.57 1019.73 1019.81 1020.30 1020.61 1021.15 1021.07 1021.02 1020.82 1020.69 1020.79 1020.85 1020.99 1021.05 1020.85 1020.68 1020.82 1020.68 1020.68 1020.66
1024.21 1023.99 1024.05 1024.05 1023.87 1023.38 1023.16 1022.97 1022.78 1022.47 1022.17 1022.08 1021.75 1021.53 1021.26 1021.23 1022.04 1021.92 1021.40 1021.04 1020.46 1019.96 1019.89 1019.85 1019.87 1019.97 1020.40 1020.76 1020.83 1021.22 1021.52 1021.40 1021.36 1021.05 1020.89 1021.05 1021.16 1021.18 1021.16 1021.03 1020.84 1020.94 1021.08 1021.48 1021.82
1024.22 1024.25 1024.06 1023.91 1023.82 1023.53 1023.10 1022.93 1022.78 1022.63 1022.21 1022.10 1022.06 1021.80 1021.55 1021.79 1022.30 1021.72 1021.38 1021.11 1020.60 1020.40 1020.62 1020.72 1020.94 1021.07 1021.15 1021.21 1021.39 1021.76 1022.04 1021.89 1021.52 1021.36 1021.16 1021.11 1021.22 1021.44 1021.18 1021.07 1021.03 1021.11 1021.65 1022.09 1022.46
1023.97 1024.07 1024.11 1024.02 1023.86 1023.38 1023.25 1022.82 1022.74 1022.67 1022.35 1022.18 1022.04 1021.95 1021.80 1022.14 1022.18 1021.82 1021.56 1021.20 1021.28 1021.09 1021.24 1021.14 1021.50 1021.45 1021.54 1021.74 1021.93 1022.30 1022.34 1022.13 1021.86 1021.51 1021.32 1021.42 1021.57 1021.53 1021.26 1021.33 1021.55 1021.78 1022.34 1022.88 1023.20
1023.85 1023.98 1024.08 1023.94 1023.74 1023.61 1023.21 1022.91 1022.71 1022.59 1022.41 1022.10 1021.92 1022.05 1022.29 1022.77 1022.38 1022.07 1021.79 1021.62 1021.56 1021.58 1021.60 1021.57 1021.65 1021.63 1022.00 1022.28 1022.42 1022.42 1022.59 1022.45 1022.12 1021.89 1021.72 1021.69 1021.73 1021.86 1021.71 1021.68 1022.06 1022.56 1023.01 1023.60 1023.90
1024.00 1024.08 1023.92 1023.79 1023.64 1023.63 1023.29 1022.92 1022.65 1022.56 1022.33 1022.07 1022.00 1022.16 1022.85 1022.62 1022.34 1022.10 1021.96 1021.94 1021.63 1021.59 1021.83 1021.73 1021.72 1022.05 1022.51 1022.79 1022.98 1023.08 1023.23 1023.47 1022.55 1022.40 1022.48 1022.42 1022.42 1021.93 1021.81 1022.04 1022.50 1023.12 1023.76 1024.30 1024.57
1023.89 1024.08 1023.98 1023.69 1023.65 1023.45 1023.21 1022.92 1022.67 1022.51 1022.33 1022.15 1021.98 1022.14 1023.03 1022.55 1022.64 1022.63 1022.30 1022.20 1022.03 1021.95 1021.92 1021.88 1022.08 1023.03 1023.30 1023.71 1024.26 1024.47 1024.33 1024.26 1023.58 1022.94 1022.95 1023.25 1022.96 1022.40 1022.53 1022.92 1023.34 1023.78 1024.44 1024.92 1025.15
1023.87 1023.95 1023.92 1023.65 1023.51 1023.34 1023.15 1022.87 1022.60 1022.44 1022.13 1022.08 1022.27 1022.81 1023.11 1023.08 1022.85 1022.74 1022.50 1022.32 1022.33 1022.23 1022.42 1022.77 1023.55 1024.33 1024.96 1024.78 1025.17 1025.19 1025.01 1024.77 1024.79 1024.36 1023.96 1024.17 1023.89 1023.33 1023.24 1023.42 1023.57 1024.18 1024.89 1025.48 1025.57
1023.63 1023.89 1023.70 1023.67 1023.41 1023.31 1023.30 1023.00 1023.26 1023.25 1022.98 1023.27 1023.24 1023.30 1023.39 1023.27 1023.08 1022.94 1022.83 1022.82 1022.49 1022.78 1023.46 1023.91 1024.57 1025.56 1025.60 1025.31 1025.47 1025.52 1025.62 1025.62 1025.28 1025.01 1024.97 1024.92 1024.85 1023.72 1023.62 1023.70 1023.87 1024.74 1025.46 1025.86 1025.82
1023.57 1023.61 1023.80 1023.54 1023.32 1023.31 1023.58 1023.67 1023.76 1024.00 1024.03 1023.68 1023.45 1023.35 1023.37 1023.43 1023.48 1023.35 1023.10 1023.36 1023.32 1023.89 1024.21 1024.69 1025.28 1025.60 1025.47 1025.42 1025.52 1025.97 1026.25 1026.39 1025.88 1025.60 1025.65 1025.66 1025.31 1024.59 1024.45 1024.64 1024.52 1025.08 1025.56 1025.76 1025.96
1023.19 1023.71 1023.68 1023.57 1023.36 1023.51 1023.64 1023.93 1023.91 1023.90 1024.14 1024.29 1023.82 1023.76 1023.62 1023.63 1023.86 1023.88 1023.66 1023.69 1023.75 1024.32 1024.88 1025.34 1025.88 1025.69 1025.75 1025.87 1025.99 1026.38 1026.89 1027.19 1027.52 1026.95 1026.39 1026.33 1026.23 1025.59 1025.51 1025.50 1025.46 1025.53 1025.71 1026.19 1026.49
1023.05 1023.41 1023.71 1023.45 1023.82 1023.73 1024.02 1023.97 1024.01 1024.05 1024.67 1024.67 1024.06 1024.00 1023.92 1023.90 1024.35 1024.20 1024.11 1024.27 1024.26 1024.76 1025.11 1025.72 1026.02 1026.09 1026.23 1026.28 1026.46 1026.88 1027.31 1027.77 1028.07 1028.32 1028.38 1027.94 1028.19 1026.84 1026.20 1025.81 1025.70 1025.91 1026.43 1026.87 1027.11
1023.01 1023.25 1023.53 1023.63 1023.75 1023.99 1024.18 1023.99 1024.13 1024.21 1025.17 1025.05 1024.48 1024.11 1023.95 1024.32 1024.78 1024.78 1024.54 1024.34 1024.78 1025.19 1025.54 1026.24 1026.17 1026.29 1026.64 1026.74 1026.68 1027.25 1027.54 1028.26 1028.85 1029.50 1029.68 1029.42 1029.35 1027.47 1026.56 1026.21 1026.09 1026.32 1026.89 1027.23 1027.24
1022.97 1023.27 1023.38 1023.72 1024.08 1023.98 1023.94 1024.06 1024.46 1025.34 1025.35 1024.99 1024.75 1024.59 1024.68 1024.81 1024.90 1024.82 1024.77 1024.97 1025.38 1025.61 1025.94 1026.39 1026.30 1026.36 1026.76 1027.05 1027.08 1027.46 1028.11 1029.20 1030.19 1030.95 1031.39 1030.42 1029.95 1028.55 1027.18 1026.71 1026.79 1026.71 1027.09 1027.32 1027.44
1022.70 1023.21 1023.60 1023.64 1023.89 1023.99 1024.06 1024.55 1026.01 1025.90 1025.64 1025.68 1025.42 1025.37 1025.32 1025.61 1025.53 1025.38 1025.49 1025.74 1026.04 1026.77 1026.88 1026.85 1027.08 1026.80 1026.78 1027.47 1027.70 1028.21 1029.45 1031.14 1032.57 1032.73 1032.39 1030.89 1030.16 1028.30 1027.18 1027.14 1027.23 1027.15 1027.08 1027.41 1027.66
1022.34 1023.24 1023.60 1023.69 1023.73 1023.92 1024.33 1025.21 1026.06 1025.29 1025.37 1025.35 1025.52 1025.99 1026.15 1026.07 1026.11 1025.95 1026.09 1026.47 1026.38 1026.62 1027.48 1027.42 1027.65 1027.48 1027.34 1027.88 1028.40 1029.21 1030.52 1032.48 1034.27 1034.74 1033.49 1031.62 1030.29 1028.39 1027.84 1027.53 1027.49 1027.89 1027.91 1028.03 1027.97
1022.42 1023.69 1024.10 1023.96 1023.77 1023.96 1024.45 1025.82 1024.65 1024.44 1024.41 1025.07 1026.04 1026.61 1026.99 1026.63 1026.46 1026.58 1026.62 1026.84 1026.71 1026.69 1027.25 1027.94 1027.98 1027.98 1028.04 1028.37 1028.91 1029.91 1030.98 1032.16 1033.99 1035.68 1034.81 1032.33 1030.55 1028.28 1028.02 1028.35 1028.51 1028.65 1028.54 1028.46 1028.10
1022.58 1023.84 1024.21 1024.09 1023.93 1024.27 1025.12 1024.70 1024.16 1023.65 1024.05 1024.49 1025.34 1026.25 1027.22 1027.17 1027.11 1027.16 1027.10 1026.82 1027.03 1027.01 1027.15 1028.03 1028.50 1028.53 1028.75 1028.84 1029.43 1029.85 1030.91 1032.63 1034.83 1036.41 1036.23 1033.05 1031.34 1029.68 1029.04 1029.52 1029.26 1029.49 1029.60 1029.31 1028.85
1022.29 1023.83 1024.04 1023.94 1024.04 1024.76 1025.27 1024.49 1023.62 1023.29 1023.39 1024.14 1024.92 1026.26 1026.79 1027.25 1027.50 1027.51 1027.32 1027.39 1027.23 1027.51 1027.61 1028.34 1028.74 1029.87 1029.75 1029.76 1029.93 1030.66 1031.58 1033.12 1034.61 1036.15 1036.65 1034.68 1031.03 1029.76 1029.99 1030.05 1030.32 1030.12 1029.86 1029.62 1028.99
1021.74 1023.59 1024.49 1023.85 1024.66 1024.44 1024.76 1023.74 1023.09 1023.27 1023.48 1023.59 1024.14 1025.37 1026.28 1027.26 1027.90 1027.84 1027.67 1027.41 1027.39 1027.69 1028.51 1029.08 1030.03 1031.12 1031.22 1030.85 1030.49 1030.62 1031.50 1033.00 1035.42 1036.39 1036.19 1035.09 1031.37 1029.58 1030.33 1030.67 1030.78 1030.77 1030.32 1029.66 1029.24
1021.08 1023.31 1024.33 1024.09 1024.15 1024.47 1024.20 1023.64 1023.21 1023.28 1023.42 1023.70 1024.26 1024.89 1026.02 1027.03 1028.24 1028.22 1028.17 1028.40 1027.92 1028.35 1028.83 1029.37 1031.35 1032.84 1032.85 1032.51 1031.63 1031.48 1031.96 1033.09 1035.24 1036.35 1036.32 1035.96 1032.30 1030.42 1030.42 1030.99 1031.33 1031.41 1030.70 1030.24 1029.67
1020.15 1023.19 1024.51 1024.05 1023.34 1022.96 1023.49 1023.34 1023.34 1023.11 1023.14 1023.47 1024.36 1025.14 1026.22 1027.21 1027.75 1028.46 1028.78 1029.08 1028.81 1029.13 1029.20 1029.75 1032.01 1033.10 1033.36 1032.65 1032.05 1032.31 1032.49 1033.41 1035.13 1036.96 1036.43 1034.80 1033.07 1031.87 1032.14 1032.33 1032.00 1031.71 1031.35 1031.02 1030.46
1018.13 1019.60 1019.97 1021.98 1022.19 1021.99 1021.59 1021.70 1022.23 1022.70 1023.04 1023.30 1024.35 1024.79 1025.31 1027.47 1028.42 1028.86 1029.37 1029.84 1030.05 1030.11 1030.58 1031.15 1033.24 1034.52 1034.29 1033.81 1033.34 1033.06 1033.06 1033.55 1034.90 1035.54 1036.32 1033.94 1034.36 1033.25 1033.49 1033.37 1033.19 1032.83 1032.23 1031.79 1031.47
1015.53 1017.37 1019.10 1018.99 1019.68 1021.05 1020.69 1020.70 1020.83 1021.54 1022.13 1022.92 1023.65 1024.43 1025.29 1026.09 1026.44 1028.00 1028.65 1029.93 1030.37 1031.64 1032.14 1033.03 1034.61 1035.84 1035.97 1035.04 1034.47 1033.79 1033.20 1033.13 1033.74 1034.89 1035.26 1034.98 1034.24 1033.77 1033.79 1034.18 1034.20 1034.10 1033.62 1033.46 1033.20
1014.58 1015.44 1015.68 1017.84 1018.59 1019.64 1018.27 1019.14 1019.46 1020.53 1021.85 1021.85 1022.88 1024.35 1025.60 1025.88 1026.68 1027.25 1028.16 1029.09 1030.15 1031.50 1033.33 1034.56 1036.06 1037.48 1037.77 1036.70 1035.50 1033.96 1031.73 1032.15 1033.04 1033.40 1033.95 1034.75 1034.21 1034.34 1034.45 1034.77 1035.14 1034.94 1034.98 1035.05 1034.83
Wind_Speed
5 6 7 7 8 9 9 11 11 11 11 11 11 12 13 15 11 5 6 6 8 16 15 8 6 7 3 4 5 3 6 2 1 2 3 5 5 7 4 3 4 3 3 4 6
4 6 7 7 7 9 10 10 11 10 11 12 12 12 13 14 3 9 5 10 12 12 7 9 8 10 4 5 5 6 4 2 2 2 3 1 4 5 5 7 4 2 2 4 3
4 6 7 8 8 8 10 9 10 10 10 12 11 11 11 8 3 4 11 13 12 10 3 2 4 3 5 5 5 2 3 2 3 3 2 3 6 3 3 3 2 2 7 8 10
4 5 7 8 10 9 9 9 10 10 11 11 10 10 11 2 3 3 11 14 13 7 5 5 5 4 4 4 4 5 6 4 1 2 2 2 2 7 2 4 2 2 2 4 8
2 5 5 7 9 11 9 9 10 10 11 9 8 9 4 6 2 6 10 11 6 5 7 5 7 4 3 2 3 4 4 6 5 5 3 0 4 4 7 8 6 4 7 7 8
1 3 6 7 10 10 10 9 9 8 9 8 8 10 2 5 5 6 7 6 6 5 6 7 3 2 3 3 4 2 4 6 6 3 1 2 3 2 3 2 3 7 6 8 9
1 3 5 8 9 11 10 9 8 7 8 6 7 3 7 2 4 7 6 4 4 3 3 3 3 4 1 2 3 2 5 6 2 3 2 0 3 3 3 2 2 6 6 7 8
1 3 5 7 9 11 10 9 7 7 7 6 8 3 3 4 3 5 5 4 6 4 2 4 4 4 3 1 5 4 5 5 5 3 4 4 7 5 3 1 5 5 6 6 8
2 3 5 7 10 11 10 8 7 8 8 7 3 4 2 4 4 5 3 2 4 4 4 2 4 3 5 4 5 7 1 3 7 5 1 4 8 6 3 6 8 5 5 6 6
3 2 5 7 9 11 10 6 7 6 3 1 1 4 2 1 2 3 5 3 3 2 5 6 6 4 5 5 2 1 2 3 3 5 7 4 14 9 7 6 9 2 6 6 7
6 3 4 7 9 8 6 3 4 5 8 3 1 4 2 1 1 5 3 5 2 6 4 4 8 2 1 2 2 2 1 2 4 5 5 1 7 17 10 5 7 6 5 5 5
7 4 4 6 7 5 2 2 1 2 5 4 2 4 2 1 2 5 5 3 4 3 2 6 4 2 1 3 3 2 2 4 6 5 3 7 10 6 5 4 4 8 5 3 3
8 4 3 6 6 3 2 3 1 3 5 2 2 2 0 3 2 3 3 1 4 3 3 5 1 3 2 3 4 4 2 3 4 7 2 6 7 8 4 4 5 2 2 4 5
9 6 2 4 3 1 1 1 1 1 5 2 1 2 2 2 3 2 3 2 3 3 3 4 2 3 3 3 2 2 2 2 4 5 2 5 5 7 7 4 3 2 3 4 5
10 7 3 2 3 3 2 3 1 3 3 1 1 1 1 3 4 6 3 3 4 3 4 2 3 4 5 1 2 3 2 3 1 1 3 5 4 9 4 3 5 6 1 1 1
11 8 4 2 2 1 4 3 3 9 8 2 2 3 3 2 1 1 2 4 1 4 4 3 1 3 3 1 2 3 3 6 5 2 4 3 4 6 3 4 5 4 2 3 2
13 8 4 2 3 4 4 4 7 5 4 3 3 3 2 3 2 2 3 2 4 5 1 3 2 1 2 3 5 6 6 6 9 7 6 3 2 8 5 4 4 8 7 5 2
14 8 2 1 2 4 2 7 4 3 6 3 4 4 5 4 1 3 4 2 2 4 3 5 5 1 2 2 3 3 5 7 5 3 5 4 4 3 3 5 6 8 5 0 4
16 2 1 1 2 2 4 4 11 8 8 9 4 5 3 3 4 3 5 6 4 4 6 5 1 1 3 2 3 1 2 3 5 1 4 2 6 7 1 9 9 8 6 7 8
5 3 2 1 3 3 6 8 6 4 6 3 7 4 7 5 6 5 7 3 5 1 1 5 4 2 0 2 4 2 4 3 4 2 6 5 3 6 5 5 9 10 10 10 9
4 4 3 1 2 4 6 9 5 4 4 7 6 5 4 8 7 5 7 1 3 4 2 4 4 1 1 3 6 2 2 4 4 5 6 4 5 6 4 7 7 8 9 8 10
4 4 1 3 4 2 5 7 5 5 1 3 5 4 7 6 5 5 7 1 4 5 7 1 4 3 3 3 2 3 5 6 7 7 4 4 13 7 8 5 9 12 12 10 8
7 4 2 2 8 4 3 3 4 6 6 7 4 3 2 7 5 2 5 3 2 3 7 6 2 4 8 6 4 3 3 4 5 4 7 5 9 2 13 15 9 9 11 9 10
6 6 1 2 1 8 7 6 6 1 4 4 5 4 4 3 3 6 4 1 2 2 6 6 4 8 8 6 4 4 4 4 7 4 5 11 13 13 12 12 13 12 9 8 9
5 6 7 12 13 6 11 15 11 9 3 6 2 6 8 5 3 4 2 3 5 3 4 5 5 3 2 3 3 5 6 9 8 7 7 17 6 11 7 8 8 10 10 8 8
10 8 2 3 17 14 16 12 18 5 12 7 5 9 5 9 10 11 10 4 7 2 3 3 3 3 5 3 3 4 9 10 10 5 9 10 14 3 3 5 8 8 9 11 11
2 2 8 10 15 16 14 12 14 14 2 3 11 8 6 3 4 5 7 8 7 8 4 5 7 4 5 4 6 9 10 13 4 5 8 5 8 2 4 3 2 6 7 5 5
Wind_Direction
24 28 20 17 3 358 5 354 352 354 346 342 343 351 351 344 322 37 51 307 318 322 325 294 358 344 8 32 30 75 59 67 30 96 136 2 31 340 293 7 8 63 104 268 277
14 13 13 7 0 353 1 357 348 348 341 347 344 352 349 346 17 55 318 327 324 336 1 8 351 346 15 15 15 69 88 148 306 107 134 93 56 322 20 336 327 343 137 318 355
20 12 4 350 350 353 355 356 347 347 343 341 343 345 341 332 80 339 330 333 327 333 266 276 285 351 43 38 4 33 126 145 7 118 58 18 1 344 7 314 234 305 323 10 23
18 11 356 344 339 348 353 350 348 347 344 335 336 331 324 278 103 298 332 337 331 337 359 11 15 37 65 54 5 76 18 8 104 27 52 331 314 329 216 245 245 271 331 48 41
25 354 349 343 335 341 348 348 345 341 347 346 336 333 322 50 45 307 342 347 356 12 42 27 39 10 73 68 54 59 351 333 318 313 265 45 261 246 269 275 266 312 49 46 53
77 348 340 339 334 342 339 345 340 335 343 349 346 331 318 75 292 314 339 2 10 25 19 40 66 336 70 69 84 318 320 292 299 297 271 234 289 16 293 18 3 51 64 59 61
176 343 337 339 339 337 335 334 330 327 333 340 345 349 53 135 318 324 342 356 3 10 56 28 349 77 30 77 339 15 356 343 344 264 214 148 339 228 307 265 343 50 62 65 53
260 329 332 343 339 333 326 321 316 312 316 319 335 49 80 297 286 16 355 349 9 28 45 335 0 79 54 284 20 31 48 28 326 90 343 22 278 285 248 351 309 9 69 65 42
214 308 329 340 336 332 324 317 311 306 300 312 40 96 89 324 20 319 27 29 327 5 355 338 54 73 23 71 25 8 53 357 336 41 51 25 275 274 9 342 305 310 83 69 48
217 279 329 339 338 331 319 297 302 331 300 235 329 58 318 191 327 335 323 1 43 11 25 39 45 56 27 48 202 304 8 325 275 328 4 293 281 292 288 311 287 257 107 77 55
210 261 319 335 340 339 354 4 31 3 37 72 245 94 91 305 6 9 356 347 35 47 75 15 68 81 16 41 104 140 178 267 266 302 343 169 282 289 318 286 313 116 89 82 74
215 227 297 331 340 342 51 69 86 146 89 3 48 74 97 0 75 352 9 56 42 85 55 29 80 244 211 69 90 55 360 335 295 335 335 352 291 323 9 356 350 132 128 141 70
197 228 279 335 340 35 101 148 22 348 83 348 5 80 245 10 74 344 27 335 90 73 61 107 160 55 44 21 40 29 24 6 274 323 323 347 336 337 38 44 42 85 144 70 68
181 197 258 336 46 167 67 189 43 40 70 228 96 1 8 359 39 342 6 74 39 116 102 87 37 67 52 51 90 33 348 327 324 27 312 52 283 308 337 343 297 264 61 58 47
187 187 183 71 146 128 153 143 51 55 8 94 115 293 342 114 137 358 323 22 102 103 95 179 104 70 57 13 2 244 290 284 264 95 3 2 68 274 329 318 330 325 83 29 84
186 190 149 125 75 163 129 85 50 46 261 174 118 144 94 38 66 104 52 46 95 80 45 100 47 96 148 44 50 303 336 41 48 74 30 247 112 283 299 324 335 332 196 214 166
175 180 147 136 181 153 111 64 48 144 357 252 176 161 133 155 123 127 131 113 148 100 124 43 6 25 85 82 8 51 40 351 355 6 217 250 5 245 299 5 305 290 234 212 203
165 152 54 88 114 128 93 59 137 230 210 176 130 105 171 167 155 144 117 143 248 87 117 142 322 167 32 74 145 65 117 145 237 267 269 280 236 245 6 323 350 8 11 197 231
140 71 102 192 111 88 89 107 204 199 162 146 60 103 252 207 145 140 180 184 184 181 137 138 188 67 64 44 95 183 73 157 104 62 29 243 310 319 153 19 13 356 355 286 257
112 119 188 172 98 75 80 222 207 166 130 130 165 146 175 214 155 177 186 193 168 192 128 202 104 78 324 131 19 111 151 65 5 21 305 276 239 235 354 317 16 8 346 327 304
97 136 189 155 127 64 175 223 185 148 154 150 174 136 194 179 177 190 191 36 158 134 89 142 105 220 60 190 170 33 28 57 117 147 184 287 257 210 113 47 0 343 350 327 330
141 148 263 110 137 168 169 187 148 154 142 150 123 119 165 162 147 182 183 95 152 145 150 122 125 153 168 331 336 178 177 141 129 254 223 174 268 306 104 100 21 343 323 316 323
126 109 358 3 186 206 287 180 161 140 186 165 135 140 143 160 109 165 127 355 119 118 160 179 359 43 348 355 349 213 187 125 104 74 212 144 264 135 352 355 340 317 310 313 319
118 135 164 236 191 151 154 190 166 215 149 132 129 100 117 97 35 158 127 47 39 110 91 94 109 159 188 185 149 177 191 152 121 121 245 231 283 301 322 322 323 320 310 312 320
155 181 182 181 214 200 185 167 163 169 200 166 99 223 161 125 59 135 107 102 24 113 59 107 177 138 263 176 176 215 203 228 182 197 191 278 225 284 276 282 294 321 323 328 349
145 152 192 174 180 181 189 202 178 171 152 193 170 178 165 153 182 188 138 177 184 32 93 18 159 101 322 15 90 262 235 237 233 202 245 257 274 16 330 32 19 349 357 2 356
139 101 132 161 167 182 196 176 190 138 284 159 160 127 165 199 107 82 75 87 125 137 124 120 132 96 264 351 353 315 226 204 198 212 164 192 228 284 2 74 334 15 30 22 351